CZ-4C R/B, 61572

Orbit data source: Space-Track

CZ-4C R/B, 61572 is space debris in SSO originally from a launch on Tue, 15 Oct 2024 UTC launched from the Jiuquan Satellite Launch Center, China (JSC). Debris objects in space refer to the collection of defunct objects orbiting the Earth. Examples of debris include non-operational satellites, rocket bodies, and fragments generated from explosions, collisions, or faulty payload assembly.

Loading next visibility...
Identifier
61572, 2024-186B
Orbit
SSO
Last TLE update
9 hours ago
Origin
Manufacturer
SAST
Mission
Spacecraft
Bus & Motor
CZ-4 STAGE 3, Unknown motor
Mass
~1,000 kg wet, ~1,000 kg dry
Launch date (UTC)
2024-10-15 (9 months ago)
Launch vehicle
Unknown
Launch site
Jiuquan Satellite Launch Center, China (JSC)
Object type
Payload
Rocket body
Debris
Shape & HBR
Cyl, 2.9 m
Radar Cross Section
7.676 m², Large (>1 m²)

Expand to show TLE details & history

TLE from 9 hours ago
0 CZ-4C R/B
1 61572U 24186B   25189.92927448  .00001960  00000-0  13701-3 0  9993
2 61572  97.8884 206.9396 0046921 227.8763 131.8471 15.05711524 39984
Epoch: 2025-07-08T22:18Z
TLE epoch observation values (Epoch: 2025-07-08T22:18:09.315Z)
Latitude
-0.00001°
Longitude
-54.71642°
Altitude
574.153 km
Speed
7.562 km/s
True Right ascension
13h 47m 45s
True Declination
0° 00' 00"
Sunlit
Object was in daylight at epoch
Visualization orbit readout
Latitude
-53.58957°
Longitude
114.89977°
Altitude
537.913 km
Speed
7.61 km/s
Apparent Right ascension
04h 39m 14s
Apparent Declination
-57° 40' 06"
Sunlit
Object is in daylight
Visualization observer readout
Local Sidereal Time
19:28:23
Azimuth
137.608° SSE
Elevation
-57.741°
Doppler factor
1
Orbital elements
Apogee altitude
578.819 km
Perigee altitude
513.838 km
Semi-major axis
6,924.465 km
Eccentricity
0.00469
Inclination
97.8884°
RAAN
206.9396°
Arg. of periapsis
227.8763°
True anomaly
Unknown
Mean anomaly
131.8471°
Eccentric anomaly
Unknown
Mean motion
3.76672 °/min
Orbital period
95.57 mins
BSTAR
0.00013701
Loading maneuver chart data...
Loading SW <> Apogee altitude chart data...
Loading historical data...
Loading historical data...
Loading historical data...
Loading historical data...
Loading historical data...
Loading historical data...
Loading historical data...
Other satellites on launch #186 in the year 2024 (2024-10-15 UTC)

CZ-4C R/B Visibility forecast

Observer location: undefined°, undefined°

Span
Click to sort rows by Start time (UTC) header in descending order
Start Az.
Max El. time (UTC)
Max El. Az.
Max El.
End time (UTC)
End Az.
5 mins2025-07-09 13:14:54.757Z52.714° ENE2025-07-09 13:16:54.757Z89.841° E20.365°2025-07-09 13:19:54.757Z144.306° SSE
5 mins2025-07-09 14:49:54.757Z330.557° NNW2025-07-09 14:51:54.757Z286.886° WNW22.859°2025-07-09 14:54:54.757Z235.571° WSW
6 mins2025-07-10 01:32:54.757Z192.759° SSW2025-07-10 01:35:54.757Z278.486° WNW35.853°2025-07-10 01:38:54.757Z332.762° NNW
|